{"data":{"norad_id":57441,"epoch":"2026-09-20T08:30:49.914432Z","epoch_age_seconds":140160,"freshness":"FRESH","line1":"1 57441U 23105M   26263.35474438  .00000394  00000+0  23842-4 0  9997","line2":"2 57441  43.0038 247.2788 0001371 263.8403  96.2292 15.27573873175110","mean_motion":15.27573873,"eccentricity":0.0001371,"inclination_deg":43.0038,"raan_deg":247.2788,"arg_perigee_deg":263.8403,"mean_anomaly_deg":96.2292,"bstar":2.3842e-5,"rev_number":17511,"period_min":94.267126811484,"perigee_km":482.12677141408,"apogee_km":484.00811367222,"semimajor_km":6861.2044425432,"source":"CELESTRAK","updated_at":"2026-09-21T09:00:33.626373Z"}}